Flag for Malaysia Weather past 2 weeks in Johor Bahru, Malaysia

Now
91 °F

Partly sunny.


Feels Like: 100 °F
Forecast: 81 / 91 °F
Wind: 14 mph from Southwest

Location: Singapore / Paya Lebar

Current Time: Jul 25, 2014 at 3:07:25 PM

Latest Report: Jul 25, 2014 at 2:00 PM


Visibility: N/A

Pressure: 29.80 "Hg

Humidity: 56%

Dew point: 73 °F

Location of Johor BahruLocation

Historic Weather in Johor Bahru — Graph

°F

Johor Bahru temperature yesterday

Maximum temperature yesterday: 90 °F (at 2:00 PM)
Minimum temperature yesterday: 82 °F (at 7:00 AM)
Average temperature yesterday: 86 °F

Past Weeks' High & Low Weather Summary

 TemperatureHumidityPressure
High93 °F (Jul 14, 4:00 PM)94% (Jul 11, 8:00 PM)29.89 "Hg (Jul 11, 8:00 PM)
Low79 °F (Jul 11, 9:00 PM)52% (Jul 13, 12:00 PM)29.71 "Hg (Jul 10, 3:00 PM)
Average86 °F74%29.80 "Hg
* Reported Jul 10 2:00 PM — Jul 25 2:00 PM, Johor Bahru, Weather by CustomWeather, © 2014

Note: Actual official high and low records may vary slightly from our data, if they occured in-between our weather recording intervals... More about our weather records

Advertising

Johor Bahru weather history for previous 24 hours

 ConditionsComfort  
Time TempWeatherWind HumidityBarometerVisibility
2:00 PM
Jul 25
91 °FPartly sunny.14 mph56%29.80 "HgN/A
1:00 PM90 °FPartly sunny.10 mph59%29.83 "HgN/A
12:00 PM90 °FPartly sunny.10 mph59%29.86 "HgN/A
11:00 AM88 °FBroken clouds.9 mph70%29.86 "HgN/A
10:00 AM86 °FPartly sunny.9 mph70%29.89 "HgN/A
9:00 AM84 °FPartly sunny.8 mph84%29.86 "HgN/A
8:00 AM82 °FPartly sunny.5 mph89%29.83 "HgN/A
7:00 AM82 °FPassing clouds.5 mph84%29.83 "HgN/A
6:00 AM82 °FPassing clouds.3 mph84%29.80 "HgN/A
5:00 AM82 °FPassing clouds.3 mph84%29.80 "HgN/A
11:00 PM
Jul 24
84 °FPassing clouds.6 mph79%29.83 "HgN/A
10:00 PM86 °FPassing clouds.8 mph75%29.83 "HgN/A
9:00 PM86 °FPassing clouds.7 mph75%29.80 "HgN/A
8:00 PM86 °FPassing clouds.8 mph70%29.77 "HgN/A
7:00 PM88 °FPartly sunny.9 mph66%29.77 "HgN/A
6:00 PM88 °FPartly sunny.10 mph62%29.77 "HgN/A
5:00 PM88 °FPartly sunny.12 mph66%29.74 "HgN/A
4:00 PM90 °FPartly sunny.10 mph59%29.74 "HgN/A
3:00 PM90 °FPartly sunny.10 mph63%29.77 "HgN/A
Weather by CustomWeather, © 2014

See weather overviewHow to use our weather pages